Location: Cuiry
(49.3858°N, 3.7708°E)
Time: 23:25:42
(UTC+00:00)

BREEZE-M DEB (TANK) - Pass Details

Date: 12 January 2026
Orbit: 759 x 22168 km, 51.3° (Epoch: 6 February)

Event Time Altitude Azimuth Distance (km) Brightness Sun altitude
Rises 17:02:19 0° 248° (WSW) 5,482 10.0 -8.4°
Reaches altitude 10° 17:06:39 10° 248° (WSW) 3,432 8.1 -9.0°
Maximum altitude 17:13:01 85° 162° (SSE) 817 3.2 -10.0°
Enters shadow 17:16:44 14° 73° (ENE) 2,070 4.6 -10.5°
